STARLINK-3637, 51799

Orbit data source: Space-Track

STARLINK-3637, 51799 is a payload satellite owned by SpaceX/Seattle (US) in LEO that was launched on Fri, 25 Feb 2022 UTC via an FALCON 9 launch vehicle from the Air Force Western Test Range (AFWTR). Payload-class satellites include a variety of spacecraft equipped with specific instruments for various scientific and technological missions. These include communications satellites like Starlink; space stations such as the ISS; scientific satellites like the Hubble; Earth observation satellites from companies like Planet Labs, Umbra, and HawkEye 360; GPS; miniature CubeSats for education and research; and military/defense satellites.

Loading next visibility...
Identifier
51799, 2022-017AH
Orbit
LEO
Country
Flag of USUS
Related business
Manufacturer
SpaceX/Seattle
Mission
Operational Commercial Communications
Bus & Motor
STARLINK, Unknown motor
Mass
297 kg wet, ~275 kg dry
Launch date (UTC)
2022-02-25 (4 years ago)
Launch vehicle
FALCON 9
Launch site
Air Force Western Test Range (AFWTR)
Object type
Payload
Rocket body
Debris
Shape & HBR
Box + 1 Pan, 10.1 m
Radar Cross Section
13.562 m², Large (>1 m²)

Expand to show TLE details & history
Last TLE update: 2 days ago

TLE from 2 days ago
0 STARLINK-3637
1 51799U 22017AH  26171.41668980  .00005101  00000-0  27127-3 0  9991
2 51799  53.1595 247.6513 0000844  24.7897  11.8206 15.16894411  5825
Epoch: 2026-06-20T10:00Z
TLE epoch observation values (Epoch: 2026-06-20T10:00:01.998Z)
Latitude
28.59537°
Longitude
-147.0254°
Altitude
516.142 km
Speed
7.61 km/s
True Right ascension
18h 06m 27s
True Declination
28° 26' 46"
Sunlit
Object was in full shadow at epoch
Visualization orbit readout
Latitude
Unknown
Longitude
Unknown
Altitude
Unknown
Speed
Unknown
Apparent Right ascension
Unknown
Apparent Declination
Unknown
Sunlit
N/A
Visualization observer readout
Local Sidereal Time
21:30:28
Azimuth
Unknown
Elevation
Unknown
Doppler factor
Unknown
Orbital elements
Apogee altitude
516.07 km
Perigee altitude
514.907 km
Semi-major axis
6,893.625 km
Eccentricity
0.00008
Inclination
53.1595°
RAAN
247.6513°
Arg. of periapsis
24.7897°
True anomaly
11.82258°
Mean anomaly
11.8206°
Eccentric anomaly
11.82159°
Mean motion
3.79203 °/min
Orbital period
94.94 mins
BSTAR
0.00027127
Loading maneuver chart data...
Computing Atmospheric mass density...
Loading historical data...
Loading historical data...
Loading historical data...
Loading historical data...
Loading historical data...
Loading historical data...
Loading historical data...

Documentation

Showing up to 5 results
|